Regional Weather Roundup
Issued by NWS Raleigh/Durham, NC

Home | Current Version | Previous Version | Text Only | Print | Product List | Glossary On
Versions: 1 2 3 4 5 6 7 8 9 10 11 12 13 14 15 16 17 18 19 20 21 22 23 24 25 26 27
000
ASUS42 KRAH 191210
RWRRAH
NORTH CAROLINA WEATHER ROUNDUP
NATIONAL WEATHER SERVICE RALEIGH NC
700 AM EST SUN FEB 19 2017

NOTE: "FAIR" INDICATES FEW OR NO CLOUDS BELOW 12,000 FEET WITH NO
SIGNIFICANT WEATHER AND/OR OBSTRUCTIONS TO VISIBILITY.

NCZ001-053-055-056-065-067-191300-
WESTERN NORTH CAROLINA

CITY           SKY/WX    TMP DP  RH WIND       PRES   REMARKS
ASHEVILLE      MOCLDY    46  42  86 NW10      29.99S
JEFFERSON      CLOUDY    44  39  83 NW7       29.96R
MORGANTON      CLEAR     36  36 100 CALM      30.00R FOG
HICKORY        CLEAR     41  40  96 NW3       29.95R
RUTHERFORDTON  CLEAR     37  37 100 CALM      29.97R
MOUNT AIRY     CLEAR     53  44  70 W3        29.95S
BOONE          CLOUDY    43  42  95 NW16G25   29.97R
$$

NCZ021-022-025-041-071-084-088-191300-
CENTRAL NORTH CAROLINA

CITY           SKY/WX    TMP DP  RH WIND       PRES   REMARKS
CHARLOTTE      PTCLDY    39  37  92 CALM      29.97R
GREENSBORO     PTCLDY    46  41  82 NW7       29.92S
WINSTON-SALEM  CLEAR     47  39  74 NW5       29.94F
RALEIGH-DURHAM PTCLDY    45  42  89 SW6       29.92R
FORT BRAGG     PTCLDY    49  44  82 NW10      29.91R
FAYETTEVILLE   PTCLDY    50  45  83 W7        29.92R
BURLINGTON     CLEAR     46  41  82 W5        29.92S
LAURINBURG     PTCLDY    48  45  89 NW6       29.95R
$$

NCZ011-015-027-028-043-044-047-080-103-191300-
NORTHEASTERN NORTH CAROLINA

CITY           SKY/WX    TMP DP  RH WIND       PRES   REMARKS
ROCKY MT-WILSO CLEAR     49  45  86 W5        29.89S
GREENVILLE     CLEAR     48  43  81 W3        29.90F
WASHINGTON     CLEAR     49  42  75 SW5       29.89R
ELIZABETH CITY CLEAR     47  41  80 W5        29.85F
MANTEO         CLEAR     50  44  80 SW3       29.86F
CAPE HATTERAS  MOCLDY    57  48  72 SW7       29.92R HAZE
$$

NCZ078-087-090-091-093-098-101-191300-
SOUTHEASTERN NORTH CAROLINA

CITY           SKY/WX    TMP DP  RH WIND       PRES   REMARKS
LUMBERTON      MOCLDY    49  46  90 W9        29.93R
GOLDSBORO      PTCLDY    48  47  96 SW6       29.88S
KINSTON        PTCLDY    50  45  81 CALM      29.91R
KENANSVILLE    NOT AVBL
NEW BERN       CLEAR     50  43  77 SW3       29.92R
CHERRY POINT   CLEAR     47  43  86 S6        29.92R
BEAUFORT       PTCLDY    52  45  77 SW5       29.92R
JACKSONVILLE   CLEAR     50  44  80 SW5       29.92R
WILMINGTON     CLEAR     50  45  83 W5        29.93R
$$





USA.gov is the U.S. government's official web portal to all federal, state and local government web resources and services.